Weather History for KVYS - July, 2013

Change the Weather History Date:

Monday, July 22, 2013

  Actual Average Record
Temperature  
Mean Temperature 76 °F -  
Max Temperature 86 °F 84 °F 101 °F (1983)
Min Temperature 66 °F 62 °F 47 °F (1970)
Cooling Degree Days 11    
Growing Degree Days 26 (Base 50)    
Moisture  
Dew Point 67 °F    
Average Humidity 73    
Maximum Humidity 94    
Minimum Humidity 51    
Precipitation  
Precipitation 0.00 in - - ()
Sea Level Pressure  
Sea Level Pressure 29.82 in    
Wind  
Wind Speed 3 mph (WSW)    
Max Wind Speed 20 mph    
Max Gust Speed 33 mph    
Visibility 9 miles    
Events Fog , Rain , Thunderstorm    
Averages and records for this station are not official NWS values.
T = Trace of Precipitation, MM = Missing Value Source: NWS Daily Summary

Daily Weather History Graph

Daily Weather History Graph

Search for Another Location

Airport or City:

Trip Planner

Search our weather history database for the weather conditions in past years. The results will help you decide how hot, cold, wet, or windy it might be!

Date:

Astronomy

Jul. 22, 2013 Rise Set
Actual Time 5:42 AM CDT 8:23 PM CDT
Civil Twilight 5:10 AM CDT 8:55 PM CDT
Nautical Twilight 4:30 AM CDT 9:35 PM CDT
Astronomical Twilight 3:44 AM CDT 10:20 PM CDT
Moon 8:07 PM CDT (7/22) 5:39 AM CDT (7/22)
Length of Visible Light 15h 44m
Length of Day
14h 40m
Full, 100% of the Moon is Illuminated
Jul 22
Full
Jul 22
Full
Jul 29
Last Quarter
Aug 6
New
Aug 14
First Quarter

Hourly Weather History & Observations

Time (CDT) Temp. Heat Index Dew Point Humidity Pressure Visibility Wind Dir Wind Speed Gust Speed Precip Events Conditions
12:15 AM 71.6 °F - 66.7 °F 85% 29.89 in 10.0 mi NE 3.5 mph - N/A   Overcast
12:35 AM 71.6 °F - 67.1 °F 86% 29.88 in 10.0 mi ENE 3.5 mph - N/A   Overcast
12:55 AM 71.6 °F - 67.1 °F 86% 29.88 in 10.0 mi Calm Calm - N/A   Overcast
1:15 AM 71.6 °F - 67.3 °F 86% 29.86 in 10.0 mi NNE 4.6 mph - N/A   Overcast
1:35 AM 70.9 °F - 67.1 °F 88% 29.86 in 10.0 mi Calm Calm - N/A   Scattered Clouds
1:55 AM 70.0 °F - 66.6 °F 89% 29.86 in 10.0 mi NW 4.6 mph - N/A   Mostly Cloudy
2:15 AM 69.4 °F - 66.4 °F 90% 29.86 in 10.0 mi Calm Calm - N/A   Mostly Cloudy
2:35 AM 68.9 °F - 66.2 °F 91% 29.86 in 10.0 mi Calm Calm - N/A   Overcast
2:55 AM 68.5 °F - 66.0 °F 92% 29.84 in 10.0 mi Calm Calm - N/A   Mostly Cloudy
3:15 AM 68.9 °F - 65.8 °F 90% 29.84 in 10.0 mi Calm Calm - N/A   Scattered Clouds
3:35 AM 68.9 °F - 66.0 °F 90% 29.83 in 10.0 mi Calm Calm - N/A   Mostly Cloudy
3:55 AM 68.7 °F - 65.8 °F 90% 29.83 in 10.0 mi Calm Calm - N/A   Overcast
4:15 AM 68.2 °F - 65.5 °F 91% 29.83 in 7.0 mi Calm Calm - N/A   Mostly Cloudy
4:35 AM 67.8 °F - 65.3 °F 92% 29.83 in 7.0 mi Calm Calm - N/A   Scattered Clouds
4:55 AM 67.5 °F - 65.3 °F 93% 29.84 in 7.0 mi Calm Calm - N/A   Clear
5:15 AM 66.4 °F - 64.0 °F 92% 29.85 in 7.0 mi Calm Calm - N/A   Mostly Cloudy
5:35 AM 66.7 °F - 64.6 °F 93% 29.85 in 7.0 mi Calm Calm - N/A   Overcast
5:55 AM 67.3 °F - 65.3 °F 93% 29.85 in 7.0 mi Calm Calm - N/A   Overcast
6:15 AM 67.6 °F - 65.1 °F 92% 29.85 in 7.0 mi Calm Calm - N/A   Overcast
6:35 AM 68.2 °F - 65.8 °F 92% 29.85 in 1.5 mi Calm Calm - N/A   Overcast
6:55 AM 68.0 °F - 66.2 °F 94% 29.85 in 0.2 mi Calm Calm - N/A Fog Fog
7:15 AM 68.7 °F - 66.9 °F 94% 29.84 in 1.2 mi Calm Calm - N/A   Mostly Cloudy
7:35 AM 69.8 °F - 66.7 °F 90% 29.85 in 5.0 mi Calm Calm - N/A   Clear
7:55 AM 71.6 °F - 68.0 °F 88% 29.85 in 4.0 mi Calm Calm - N/A   Clear
8:35 AM 72.9 °F - 68.5 °F 86% 29.85 in 5.0 mi Calm Calm - N/A   Clear
9:35 AM 77.4 °F - 67.1 °F 71% 29.85 in 10.0 mi Calm Calm - N/A   Clear
9:55 AM 76.6 °F - 66.4 °F 70% 29.85 in 10.0 mi Calm Calm - N/A   Clear
10:15 AM 77.5 °F - 67.1 °F 70% 29.85 in 10.0 mi Calm Calm - N/A   Scattered Clouds
10:35 AM 78.4 °F - 67.1 °F 68% 29.85 in 10.0 mi Calm Calm - N/A   Mostly Cloudy
10:55 AM 80.4 °F 82.7 °F 66.6 °F 63% 29.85 in 10.0 mi South 6.9 mph - N/A   Mostly Cloudy
11:15 AM 80.2 °F 82.7 °F 67.5 °F 65% 29.85 in 10.0 mi WSW 5.8 mph - N/A   Scattered Clouds
11:35 AM 80.2 °F 82.5 °F 66.7 °F 63% 29.85 in 10.0 mi SW 6.9 mph - N/A   Scattered Clouds
11:55 AM 80.4 °F 82.8 °F 67.3 °F 64% 29.86 in 10.0 mi West 9.2 mph - N/A   Scattered Clouds
12:15 PM 80.6 °F 82.9 °F 66.9 °F 63% 29.85 in 10.0 mi West 4.6 mph - N/A   Mostly Cloudy
12:35 PM 81.9 °F 84.2 °F 66.7 °F 60% 29.84 in 10.0 mi SW 3.5 mph - N/A   Scattered Clouds
12:55 PM 83.3 °F 85.7 °F 66.7 °F 57% 29.83 in 10.0 mi South 3.5 mph - N/A   Mostly Cloudy
1:15 PM 83.1 °F 85.4 °F 66.2 °F 57% 29.82 in 10.0 mi WSW 5.8 mph - N/A   Mostly Cloudy
1:35 PM 84.0 °F 86.3 °F 66.2 °F 55% 29.81 in 10.0 mi West 5.8 mph - N/A   Scattered Clouds
1:55 PM 84.6 °F 86.8 °F 66.2 °F 54% 29.81 in 10.0 mi SSW 3.5 mph - N/A   Scattered Clouds
2:15 PM 84.6 °F 86.6 °F 65.8 °F 53% 29.81 in 10.0 mi WSW 4.6 mph - N/A   Mostly Cloudy
2:35 PM 85.1 °F 87.1 °F 65.8 °F 52% 29.81 in 10.0 mi West 3.5 mph - N/A   Mostly Cloudy
2:55 PM 84.2 °F 86.3 °F 65.7 °F 54% 29.80 in 10.0 mi Calm Calm - N/A   Mostly Cloudy
3:15 PM 85.3 °F 87.4 °F 65.8 °F 52% 29.80 in 10.0 mi SW 4.6 mph - N/A   Scattered Clouds
3:35 PM 86.2 °F 88.4 °F 66.4 °F 51% 29.80 in 10.0 mi West 8.1 mph 18.4 mph N/A   Scattered Clouds
3:55 PM 85.6 °F 87.9 °F 66.4 °F 52% 29.80 in 10.0 mi WSW 5.8 mph - N/A   Scattered Clouds
4:15 PM 86.2 °F 89.1 °F 67.1 °F 53% 29.79 in 10.0 mi SW 6.9 mph - N/A   Scattered Clouds
4:35 PM 85.8 °F 88.8 °F 67.6 °F 54% 29.79 in 10.0 mi SW 9.2 mph - N/A   Scattered Clouds
4:55 PM 86.5 °F 89.6 °F 67.8 °F 53% 29.79 in 10.0 mi SW 10.4 mph - N/A   Scattered Clouds
5:15 PM 86.2 °F 89.4 °F 67.8 °F 54% 29.78 in 10.0 mi SW 10.4 mph - N/A   Mostly Cloudy
5:35 PM 86.4 °F 89.7 °F 68.0 °F 54% 29.78 in 10.0 mi SW 10.4 mph - N/A   Scattered Clouds
5:55 PM 85.5 °F 88.8 °F 68.4 °F 56% 29.78 in 10.0 mi SW 9.2 mph - N/A   Clear
6:15 PM 85.6 °F 89.4 °F 68.7 °F 57% 29.77 in 10.0 mi SW 6.9 mph - N/A   Scattered Clouds
6:35 PM 85.3 °F 89.1 °F 69.1 °F 58% 29.76 in 10.0 mi SW 9.2 mph - N/A   Clear
6:55 PM 84.6 °F 88.5 °F 69.1 °F 60% 29.76 in 10.0 mi SW 6.9 mph - N/A   Clear
7:15 PM 83.7 °F 87.7 °F 69.8 °F 63% 29.77 in 10.0 mi WSW 6.9 mph - N/A   Clear
7:35 PM 83.5 °F 87.7 °F 70.0 °F 64% 29.78 in 10.0 mi SW 5.8 mph - N/A   Clear
7:55 PM 81.5 °F 85.1 °F 70.0 °F 68% 29.77 in 10.0 mi SW 6.9 mph - N/A   Clear
8:15 PM 80.8 °F 84.2 °F 70.0 °F 70% 29.77 in 10.0 mi SSW 5.8 mph - N/A   Clear
8:35 PM 80.2 °F 83.7 °F 70.7 °F 73% 29.77 in 10.0 mi SSW 4.6 mph - N/A   Clear
8:55 PM 79.0 °F - 70.2 °F 74% 29.77 in 10.0 mi SSW 5.8 mph - N/A   Clear
9:15 PM 78.3 °F - 70.2 °F 76% 29.78 in 10.0 mi SW 5.8 mph - N/A   Clear
9:35 PM 78.3 °F - 70.3 °F 77% 29.78 in 10.0 mi SW 5.8 mph - N/A   Clear
9:55 PM 78.1 °F - 70.7 °F 78% 29.78 in 10.0 mi SW 6.9 mph - N/A   Clear
10:15 PM 77.7 °F - 70.9 °F 79% 29.79 in 10.0 mi SW 6.9 mph - N/A   Clear
10:35 PM 77.9 °F - 71.1 °F 79% 29.79 in 10.0 mi SW 6.9 mph - N/A   Scattered Clouds
10:55 PM 77.9 °F - 64.0 °F 62% 29.85 in 10.0 mi NW 19.6 mph 33.4 mph N/A   Mostly Cloudy
11:15 PM 74.3 °F - 62.2 °F 66% 29.86 in 10.0 mi WNW 17.3 mph 25.3 mph N/A Rain , Thunderstorm Light Thunderstorms and Rain
11:35 PM 71.1 °F - 63.0 °F 75% 29.86 in 10.0 mi WNW 12.7 mph 20.7 mph N/A Thunderstorm Unknown
11:55 PM 69.6 °F - 64.2 °F 83% 29.88 in 10.0 mi NW 16.1 mph 21.9 mph N/A Rain , Thunderstorm Light Thunderstorms and Rain